QPF
0.00 0.00 0.00 0.00 0.00 0.00 0.00 0.00 0.00 0.00 0.00 0.00 0.00 0.00 0.00 0.00 0.00 0.00 0.01 0.01 0.03 0.05 0.06 0.05 0.06 0.06 0.08 0.07 0.05 0.03 0.01 0.00 0.00 0.00 0.00 0.00 0.00 0.00 0.00 0.00 0.00 0.00 0.01 0.01
0.00 0.00 0.00 0.00 0.00 0.00 0.00 0.00 0.00 0.00 0.00 0.00 0.00 0.00 0.00 0.00 0.00 0.01 0.02 0.03 0.06 0.07 0.07 0.07 0.08 0.09 0.08 0.06 0.04 0.02 0.02 0.01 0.01 0.00 0.00 0.00 0.00 0.00 0.01 0.01 0.01 0.01 0.01 0.01
0.00 0.00 0.00 0.00 0.00 0.00 0.00 0.00 0.00 0.00 0.00 0.00 0.00 0.00 0.00 0.00 0.00 0.02 0.03 0.06 0.08 0.08 0.09 0.11 0.13 0.14 0.14 0.10 0.06 0.04 0.02 0.00 0.00 0.00 0.00 0.00 0.00 0.01 0.01 0.01 0.01 0.01 0.00 0.00
0.00 0.00 0.00 0.00 0.00 0.00 0.00 0.00 0.00 0.00 0.00 0.00 0.00 0.00 0.00 0.00 0.01 0.03 0.04 0.06 0.08 0.09 0.12 0.18 0.23 0.22 0.17 0.11 0.07 0.03 0.01 0.00 0.00 0.00 0.00 0.01 0.01 0.01 0.00 0.00 0.00 0.00 0.00 0.00
0.00 0.00 0.00 0.00 0.00 0.00 0.00 0.00 0.00 0.00 0.00 0.00 0.00 0.00 0.00 0.00 0.01 0.02 0.04 0.06 0.09 0.14 0.21 0.29 0.28 0.21 0.15 0.08 0.03 0.01 0.01 0.00 0.00 0.00 0.00 0.00 0.00 0.00 0.00 0.00 0.00 0.00 0.00 0.00
0.00 0.00 0.00 0.00 0.00 0.00 0.00 0.00 0.00 0.00 0.00 0.00 0.00 0.01 0.01 0.01 0.01 0.03 0.05 0.09 0.16 0.26 0.31 0.31 0.24 0.16 0.10 0.04 0.01 0.01 0.00 0.00 0.00 0.00 0.00 0.00 0.00 0.00 0.00 0.00 0.00 0.00 0.00 0.00
0.00 0.00 0.00 0.00 0.00 0.00 0.00 0.00 0.00 0.00 0.00 0.01 0.01 0.01 0.01 0.01 0.02 0.04 0.08 0.15 0.23 0.29 0.28 0.23 0.15 0.09 0.05 0.02 0.01 0.01 0.00 0.00 0.00 0.00 0.00 0.00 0.00 0.00 0.00 0.00 0.00 0.00 0.00 0.00
0.00 0.00 0.00 0.00 0.00 0.00 0.01 0.00 0.00 0.00 0.00 0.01 0.01 0.01 0.02 0.03 0.05 0.08 0.14 0.20 0.23 0.23 0.19 0.12 0.06 0.03 0.02 0.01 0.00 0.00 0.00 0.00 0.00 0.00 0.00 0.00 0.00 0.00 0.00 0.00 0.00 0.00 0.00 0.00
0.01 0.01 0.01 0.00 0.01 0.01 0.01 0.01 0.00 0.01 0.01 0.01 0.02 0.03 0.05 0.07 0.12 0.15 0.17 0.20 0.20 0.16 0.10 0.05 0.02 0.01 0.01 0.00 0.00 0.00 0.00 0.00 0.00 0.00 0.00 0.00 0.00 0.00 0.00 0.00 0.00 0.00 0.01 0.01
0.01 0.01 0.01 0.01 0.02 0.01 0.01 0.01 0.02 0.02 0.04 0.06 0.07 0.08 0.10 0.13 0.17 0.19 0.19 0.16 0.10 0.06 0.03 0.01 0.01 0.00 0.00 0.00 0.00 0.00 0.00 0.00 0.00 0.00 0.00 0.00 0.00 0.00 0.00 0.00 0.01 0.01 0.01 0.01
0.04 0.03 0.03 0.05 0.05 0.03 0.04 0.04 0.05 0.06 0.07 0.06 0.06 0.07 0.07 0.09 0.11 0.10 0.08 0.05 0.03 0.01 0.00 0.00 0.00 0.00 0.00 0.00 0.00 0.00 0.00 0.00 0.00 0.00 0.00 0.00 0.00 0.00 0.00 0.01 0.01 0.01 0.02 0.02
0.07 0.06 0.06 0.09 0.10 0.08 0.06 0.05 0.05 0.05 0.06 0.08 0.08 0.07 0.05 0.04 0.04 0.03 0.02 0.01 0.00 0.00 0.00 0.00 0.00 0.00 0.00 0.00 0.00 0.00 0.00 0.00 0.00 0.00 0.00 0.00 0.00 0.00 0.00 0.00 0.00 0.00 0.01 0.01
0.07 0.08 0.09 0.10 0.10 0.10 0.07 0.06 0.06 0.05 0.04 0.06 0.06 0.05 0.03 0.02 0.01 0.01 0.00 0.00 0.00 0.00 0.00 0.00 0.00 0.00 0.00 0.00 0.00 0.00 0.00 0.00 0.00 0.00 0.00 0.00 0.00 0.00 0.01 0.01 0.00 0.00 0.00 0.01
0.09 0.09 0.11 0.08 0.06 0.06 0.04 0.04 0.04 0.03 0.02 0.02 0.01 0.01 0.01 0.01 0.00 0.00 0.00 0.00 0.00 0.00 0.00 0.00 0.00 0.00 0.00 0.00 0.00 0.00 0.00 0.00 0.00 0.00 0.00 0.00 0.00 0.00 0.01 0.01 0.02 0.02 0.01 0.01
0.09 0.08 0.07 0.04 0.03 0.03 0.03 0.02 0.02 0.01 0.01 0.01 0.00 0.00 0.00 0.00 0.00 0.00 0.00 0.00 0.00 0.00 0.00 0.00 0.00 0.00 0.00 0.00 0.00 0.00 0.00 0.00 0.00 0.00 0.00 0.00 0.00 0.00 0.01 0.01 0.02 0.02 0.01 0.01
0.06 0.04 0.03 0.01 0.01 0.01 0.01 0.01 0.01 0.00 0.00 0.00 0.00 0.00 0.00 0.00 0.00 0.00 0.00 0.00 0.00 0.00 0.00 0.00 0.00 0.00 0.00 0.00 0.00 0.00 0.00 0.00 0.00 0.00 0.00 0.00 0.00 0.00 0.01 0.01 0.01 0.02 0.02 0.01
0.03 0.01 0.01 0.00 0.00 0.01 0.01 0.00 0.00 0.00 0.00 0.00 0.00 0.00 0.00 0.00 0.00 0.00 0.00 0.00 0.00 0.00 0.00 0.00 0.00 0.00 0.00 0.00 0.00 0.00 0.00 0.00 0.00 0.00 0.00 0.00 0.00 0.00 0.00 0.01 0.01 0.02 0.02 0.01
0.01 0.01 0.00 0.00 0.00 0.00 0.00 0.00 0.00 0.00 0.00 0.00 0.00 0.00 0.00 0.00 0.00 0.00 0.00 0.00 0.00 0.00 0.00 0.00 0.00 0.00 0.00 0.00 0.00 0.00 0.00 0.00 0.00 0.00 0.00 0.00 0.00 0.00 0.00 0.00 0.01 0.01 0.01 0.01
0.02 0.00 0.00 0.00 0.00 0.00 0.00 0.00 0.00 0.00 0.00 0.00 0.00 0.00 0.00 0.00 0.00 0.00 0.00 0.00 0.00 0.00 0.00 0.00 0.00 0.00 0.00 0.00 0.00 0.00 0.00 0.00 0.00 0.00 0.00 0.00 0.00 0.00 0.00 0.00 0.00 0.00 0.00 0.01
0.01 0.00 0.00 0.00 0.00 0.00 0.00 0.00 0.00 0.00 0.00 0.00 0.00 0.00 0.00 0.00 0.00 0.00 0.00 0.00 0.00 0.00 0.00 0.00 0.00 0.00 0.00 0.00 0.00 0.00 0.00 0.00 0.00 0.00 0.00 0.00 0.00 0.00 0.00 0.00 0.00 0.00 0.00 0.00
0.00 0.00 0.00 0.00 0.00 0.00 0.00 0.00 0.00 0.00 0.00 0.00 0.00 0.00 0.00 0.00 0.00 0.00 0.00 0.00 0.00 0.00 0.00 0.00 0.00 0.00 0.00 0.00 0.00 0.00 0.00 0.00 0.00 0.00 0.00 0.00 0.00 0.00 0.00 0.00 0.00 0.00 0.00 0.00
0.00 0.00 0.00 0.00 0.00 0.00 0.00 0.00 0.00 0.00 0.00 0.00 0.00 0.00 0.00 0.00 0.00 0.00 0.00 0.00 0.00 0.00 0.00 0.00 0.00 0.00 0.00 0.00 0.00 0.00 0.00 0.00 0.00 0.00 0.00 0.00 0.00 0.00 0.00 0.00 0.00 0.00 0.00 0.00
0.01 0.00 0.00 0.00 0.00 0.00 0.00 0.00 0.00 0.00 0.00 0.00 0.00 0.00 0.00 0.00 0.00 0.00 0.00 0.00 0.00 0.00 0.00 0.00 0.00 0.00 0.00 0.00 0.00 0.00 0.00 0.00 0.00 0.00 0.00 0.00 0.00 0.00 0.00 0.00 0.00 0.00 0.00 0.00
0.01 0.01 0.00 0.00 0.00 0.00 0.00 0.00 0.00 0.00 0.00 0.00 0.00 0.00 0.00 0.00 0.00 0.00 0.00 0.00 0.00 0.00 0.00 0.00 0.00 0.00 0.00 0.00 0.00 0.00 0.00 0.00 0.00 0.00 0.00 0.00 0.00 0.00 0.00 0.00 0.00 0.00 0.00 0.00
0.01 0.01 0.00 0.00 0.00 0.00 0.00 0.00 0.00 0.00 0.00 0.00 0.00 0.00 0.00 0.00 0.00 0.00 0.00 0.00 0.00 0.00 0.00 0.00 0.00 0.00 0.00 0.00 0.00 0.00 0.00 0.00 0.00 0.00 0.00 0.00 0.00 0.00 0.00 0.00 0.00 0.00 0.00 0.00
0.02 0.02 0.01 0.01 0.01 0.00 0.00 0.00 0.00 0.00 0.00 0.00 0.00 0.00 0.00 0.00 0.00 0.00 0.00 0.00 0.00 0.00 0.00 0.00 0.00 0.00 0.00 0.00 0.00 0.00 0.00 0.00 0.00 0.00 0.00 0.00 0.00 0.00 0.00 0.00 0.00 0.00 0.00 0.00
0.03 0.02 0.01 0.00 0.00 0.00 0.00 0.00 0.00 0.00 0.00 0.00 0.00 0.00 0.00 0.00 0.00 0.00 0.00 0.00 0.00 0.00 0.00 0.00 0.00 0.00 0.00 0.00 0.00 0.00 0.00 0.00 0.00 0.00 0.00 0.00 0.00 0.00 0.00 0.00 0.00 0.00 0.00 0.00
MSLP
1010.12 1009.88 1009.70 1009.57 1009.46 1009.33 1009.13 1008.81 1008.36 1007.77 1007.10 1006.40 1005.77 1005.31 1005.11 1005.23 1005.69 1006.49 1007.56 1008.83 1010.19 1011.54 1012.80 1013.90 1014.82 1015.55 1016.13 1016.58 1016.96 1017.30 1017.61 1017.91 1018.18 1018.41 1018.58 1018.68 1018.71 1018.67 1018.59 1018.49 1018.39 1018.31 1018.26 1018.22
1010.72 1010.44 1010.18 1009.94 1009.70 1009.45 1009.14 1008.77 1008.31 1007.78 1007.22 1006.66 1006.20 1005.91 1005.85 1006.08 1006.61 1007.42 1008.46 1009.67 1010.95 1012.22 1013.39 1014.42 1015.27 1015.96 1016.49 1016.90 1017.23 1017.51 1017.76 1018.00 1018.22 1018.40 1018.53 1018.61 1018.63 1018.60 1018.53 1018.45 1018.38 1018.32 1018.29 1018.29
1011.20 1010.92 1010.61 1010.30 1009.97 1009.63 1009.28 1008.89 1008.48 1008.05 1007.63 1007.26 1007.00 1006.90 1007.01 1007.35 1007.95 1008.77 1009.77 1010.89 1012.06 1013.20 1014.25 1015.16 1015.91 1016.50 1016.95 1017.29 1017.55 1017.77 1017.97 1018.15 1018.31 1018.45 1018.56 1018.63 1018.65 1018.63 1018.58 1018.52 1018.47 1018.44 1018.43 1018.43
1011.56 1011.28 1010.96 1010.61 1010.24 1009.88 1009.52 1009.18 1008.86 1008.57 1008.33 1008.17 1008.13 1008.23 1008.51 1008.97 1009.62 1010.44 1011.38 1012.39 1013.42 1014.40 1015.29 1016.04 1016.66 1017.13 1017.47 1017.72 1017.91 1018.06 1018.20 1018.34 1018.47 1018.59 1018.68 1018.75 1018.78 1018.77 1018.74 1018.70 1018.66 1018.63 1018.62 1018.61
1011.80 1011.55 1011.23 1010.88 1010.52 1010.17 1009.86 1009.61 1009.41 1009.29 1009.25 1009.31 1009.48 1009.78 1010.21 1010.77 1011.45 1012.24 1013.10 1013.98 1014.85 1015.65 1016.35 1016.94 1017.39 1017.73 1017.98 1018.14 1018.26 1018.36 1018.46 1018.57 1018.68 1018.79 1018.89 1018.96 1018.99 1019.00 1018.98 1018.94 1018.90 1018.86 1018.82 1018.78
1011.98 1011.75 1011.46 1011.13 1010.80 1010.51 1010.28 1010.13 1010.08 1010.13 1010.28 1010.54 1010.91 1011.37 1011.92 1012.55 1013.25 1013.98 1014.74 1015.47 1016.17 1016.78 1017.31 1017.73 1018.04 1018.26 1018.41 1018.51 1018.58 1018.65 1018.73 1018.83 1018.94 1019.05 1019.16 1019.24 1019.29 1019.30 1019.28 1019.24 1019.18 1019.10 1019.02 1018.92
1012.15 1011.94 1011.68 1011.40 1011.12 1010.90 1010.76 1010.73 1010.81 1011.02 1011.34 1011.76 1012.28 1012.86 1013.49 1014.15 1014.82 1015.49 1016.13 1016.72 1017.25 1017.70 1018.06 1018.34 1018.53 1018.66 1018.75 1018.80 1018.86 1018.92 1019.00 1019.10 1019.23 1019.35 1019.47 1019.56 1019.62 1019.64 1019.62 1019.56 1019.46 1019.35 1019.20 1019.03
1012.36 1012.18 1011.96 1011.72 1011.50 1011.35 1011.30 1011.37 1011.57 1011.90 1012.34 1012.87 1013.48 1014.13 1014.79 1015.45 1016.07 1016.65 1017.18 1017.63 1018.02 1018.33 1018.57 1018.74 1018.86 1018.94 1018.99 1019.04 1019.10 1019.17 1019.27 1019.39 1019.53 1019.68 1019.81 1019.91 1019.98 1020.00 1019.96 1019.88 1019.76 1019.59 1019.39 1019.14
1012.66 1012.50 1012.31 1012.11 1011.95 1011.87 1011.89 1012.03 1012.31 1012.72 1013.23 1013.83 1014.47 1015.14 1015.78 1016.40 1016.95 1017.44 1017.86 1018.21 1018.49 1018.71 1018.87 1018.98 1019.07 1019.13 1019.19 1019.25 1019.33 1019.43 1019.55 1019.70 1019.85 1020.01 1020.15 1020.26 1020.33 1020.34 1020.30 1020.21 1020.05 1019.85 1019.59 1019.27
1013.05 1012.91 1012.75 1012.60 1012.49 1012.45 1012.52 1012.72 1013.04 1013.48 1014.01 1014.61 1015.24 1015.87 1016.48 1017.02 1017.50 1017.91 1018.25 1018.52 1018.73 1018.90 1019.03 1019.13 1019.22 1019.30 1019.39 1019.48 1019.59 1019.71 1019.86 1020.01 1020.17 1020.33 1020.47 1020.58 1020.64 1020.66 1020.62 1020.51 1020.34 1020.11 1019.81 1019.45
1013.51 1013.39 1013.27 1013.16 1013.09 1013.09 1013.19 1013.41 1013.74 1014.17 1014.69 1015.25 1015.84 1016.41 1016.94 1017.41 1017.82 1018.16 1018.44 1018.67 1018.85 1019.01 1019.14 1019.27 1019.39 1019.51 1019.63 1019.76 1019.89 1020.03 1020.18 1020.33 1020.48 1020.62 1020.75 1020.85 1020.91 1020.92 1020.88 1020.78 1020.61 1020.37 1020.05 1019.66
1013.99 1013.92 1013.83 1013.76 1013.73 1013.76 1013.89 1014.10 1014.42 1014.82 1015.29 1015.79 1016.31 1016.80 1017.26 1017.66 1018.01 1018.31 1018.56 1018.77 1018.96 1019.14 1019.31 1019.48 1019.65 1019.81 1019.97 1020.12 1020.26 1020.39 1020.52 1020.65 1020.77 1020.88 1020.98 1021.06 1021.11 1021.13 1021.10 1021.01 1020.85 1020.62 1020.31 1019.92
1014.45 1014.42 1014.39 1014.36 1014.37 1014.43 1014.57 1014.78 1015.07 1015.43 1015.84 1016.28 1016.72 1017.14 1017.53 1017.88 1018.19 1018.46 1018.71 1018.93 1019.15 1019.37 1019.59 1019.80 1020.01 1020.21 1020.38 1020.54 1020.67 1020.78 1020.86 1020.94 1021.01 1021.08 1021.14 1021.20 1021.25 1021.27 1021.26 1021.19 1021.06 1020.86 1020.58 1020.21
1014.84 1014.86 1014.89 1014.91 1014.97 1015.06 1015.21 1015.42 1015.69 1016.01 1016.36 1016.74 1017.11 1017.48 1017.82 1018.13 1018.42 1018.69 1018.95 1019.20 1019.46 1019.72 1019.98 1020.24 1020.48 1020.69 1020.86 1021.00 1021.10 1021.15 1021.19 1021.21 1021.22 1021.24 1021.26 1021.30 1021.34 1021.37 1021.38 1021.35 1021.26 1021.10 1020.86 1020.53
1015.12 1015.22 1015.30 1015.39 1015.50 1015.62 1015.79 1016.00 1016.25 1016.54 1016.86 1017.19 1017.52 1017.84 1018.15 1018.45 1018.74 1019.02 1019.30 1019.59 1019.89 1020.19 1020.49 1020.76 1021.01 1021.22 1021.37 1021.47 1021.51 1021.51 1021.48 1021.43 1021.38 1021.35 1021.35 1021.37 1021.41 1021.45 1021.49 1021.50 1021.46 1021.35 1021.16 1020.87
1015.30 1015.48 1015.64 1015.79 1015.95 1016.12 1016.31 1016.53 1016.77 1017.04 1017.33 1017.63 1017.93 1018.24 1018.54 1018.84 1019.14 1019.44 1019.76 1020.08 1020.41 1020.74 1021.05 1021.33 1021.56 1021.74 1021.86 1021.90 1021.89 1021.82 1021.73 1021.62 1021.53 1021.46 1021.43 1021.44 1021.49 1021.56 1021.63 1021.68 1021.69 1021.63 1021.49 1021.25
1015.42 1015.67 1015.91 1016.13 1016.34 1016.55 1016.77 1017.00 1017.24 1017.50 1017.78 1018.06 1018.36 1018.66 1018.97 1019.28 1019.60 1019.93 1020.28 1020.62 1020.97 1021.31 1021.62 1021.89 1022.10 1022.24 1022.30 1022.29 1022.22 1022.10 1021.95 1021.79 1021.66 1021.57 1021.53 1021.55 1021.61 1021.71 1021.82 1021.91 1021.96 1021.96 1021.86 1021.67
1015.51 1015.85 1016.16 1016.44 1016.70 1016.95 1017.19 1017.43 1017.68 1017.94 1018.21 1018.49 1018.79 1019.10 1019.42 1019.76 1020.10 1020.46 1020.82 1021.19 1021.54 1021.87 1022.17 1022.41 1022.58 1022.67 1022.69 1022.63 1022.51 1022.34 1022.15 1021.97 1021.82 1021.72 1021.68 1021.71 1021.80 1021.92 1022.06 1022.20 1022.29 1022.32 1022.27 1022.13
1015.65 1016.06 1016.43 1016.76 1017.06 1017.34 1017.59 1017.85 1018.10 1018.36 1018.63 1018.92 1019.23 1019.55 1019.89 1020.24 1020.61 1020.99 1021.36 1021.73 1022.08 1022.40 1022.67 1022.87 1023.01 1023.06 1023.03 1022.93 1022.77 1022.57 1022.37 1022.18 1022.03 1021.93 1021.91 1021.95 1022.06 1022.21 1022.37 1022.53 1022.65 1022.71 1022.69 1022.58
1015.85 1016.32 1016.74 1017.11 1017.44 1017.73 1018.00 1018.26 1018.51 1018.78 1019.05 1019.35 1019.66 1020.00 1020.35 1020.72 1021.10 1021.49 1021.87 1022.24 1022.58 1022.87 1023.11 1023.28 1023.38 1023.40 1023.34 1023.21 1023.03 1022.83 1022.62 1022.43 1022.29 1022.21 1022.20 1022.26 1022.38 1022.54 1022.72 1022.89 1023.03 1023.11 1023.10 1023.02
1016.13 1016.64 1017.09 1017.49 1017.84 1018.14 1018.41 1018.67 1018.92 1019.18 1019.46 1019.76 1020.08 1020.43 1020.79 1021.18 1021.56 1021.95 1022.34 1022.69 1023.01 1023.29 1023.50 1023.64 1023.71 1023.71 1023.63 1023.50 1023.32 1023.12 1022.92 1022.75 1022.62 1022.56 1022.56 1022.63 1022.75 1022.91 1023.09 1023.26 1023.39 1023.47 1023.47 1023.40
1016.45 1016.99 1017.46 1017.87 1018.22 1018.52 1018.79 1019.05 1019.30 1019.56 1019.83 1020.13 1020.46 1020.82 1021.19 1021.57 1021.97 1022.35 1022.73 1023.07 1023.38 1023.63 1023.83 1023.96 1024.01 1024.00 1023.93 1023.80 1023.63 1023.45 1023.28 1023.13 1023.02 1022.97 1022.98 1023.04 1023.16 1023.31 1023.47 1023.62 1023.73 1023.80 1023.80 1023.73
1016.76 1017.30 1017.79 1018.20 1018.55 1018.85 1019.12 1019.37 1019.62 1019.87 1020.15 1020.46 1020.79 1021.14 1021.51 1021.90 1022.29 1022.67 1023.04 1023.37 1023.66 1023.91 1024.09 1024.22 1024.28 1024.28 1024.22 1024.12 1023.98 1023.83 1023.69 1023.57 1023.48 1023.44 1023.45 1023.50 1023.60 1023.72 1023.85 1023.97 1024.06 1024.11 1024.10 1024.04
1016.99 1017.54 1018.02 1018.42 1018.77 1019.07 1019.34 1019.59 1019.85 1020.11 1020.39 1020.70 1021.03 1021.39 1021.76 1022.14 1022.52 1022.89 1023.25 1023.57 1023.86 1024.10 1024.29 1024.42 1024.50 1024.53 1024.50 1024.44 1024.35 1024.25 1024.14 1024.05 1023.98 1023.95 1023.96 1024.00 1024.07 1024.16 1024.26 1024.35 1024.41 1024.44 1024.43 1024.36
1017.10 1017.64 1018.11 1018.51 1018.86 1019.17 1019.45 1019.71 1019.98 1020.25 1020.54 1020.86 1021.19 1021.54 1021.91 1022.29 1022.66 1023.02 1023.36 1023.68 1023.96 1024.21 1024.41 1024.57 1024.68 1024.75 1024.77 1024.76 1024.72 1024.67 1024.62 1024.56 1024.53 1024.51 1024.51 1024.54 1024.60 1024.66 1024.73 1024.79 1024.83 1024.85 1024.83 1024.78
1017.08 1017.59 1018.05 1018.46 1018.82 1019.14 1019.43 1019.72 1020.00 1020.30 1020.61 1020.93 1021.27 1021.62 1021.99 1022.35 1022.71 1023.06 1023.39 1023.70 1023.99 1024.24 1024.46 1024.65 1024.81 1024.92 1025.01 1025.06 1025.09 1025.10 1025.10 1025.09 1025.09 1025.10 1025.11 1025.14 1025.18 1025.23 1025.28 1025.33 1025.36 1025.38 1025.37 1025.33
1016.92 1017.42 1017.87 1018.28 1018.65 1019.00 1019.32 1019.64 1019.96 1020.28 1020.61 1020.95 1021.30 1021.65 1022.01 1022.36 1022.71 1023.04 1023.36 1023.67 1023.96 1024.22 1024.47 1024.69 1024.89 1025.06 1025.21 1025.33 1025.43 1025.51 1025.57 1025.62 1025.66 1025.70 1025.75 1025.79 1025.84 1025.88 1025.93 1025.98 1026.02 1026.04 1026.05 1026.04
Thickness
5657 5663 5664 5664 5668 5672 5672 5675 5673 5683 5689 5696 5698 5697 5697 5696 5692 5683 5671 5660 5650 5639 5629 5619 5610 5601 5592 5582 5575 5568 5561 5555 5548 5540 5534 5528 5523 5517 5512 5507 5502 5498 5492 5486
5637 5647 5650 5651 5659 5662 5664 5667 5668 5671 5675 5686 5684 5683 5681 5681 5678 5670 5660 5648 5636 5625 5615 5604 5595 5585 5575 5569 5561 5554 5547 5542 5536 5530 5524 5519 5513 5508 5503 5497 5492 5486 5480 5473
5625 5636 5631 5635 5651 5653 5656 5662 5659 5656 5660 5662 5661 5661 5660 5662 5662 5656 5646 5633 5620 5608 5597 5586 5576 5568 5560 5554 5547 5541 5535 5530 5526 5520 5515 5510 5505 5500 5493 5486 5479 5472 5464 5458
5615 5613 5605 5633 5635 5635 5634 5639 5640 5639 5639 5640 5639 5640 5640 5642 5642 5636 5626 5613 5600 5588 5576 5565 5557 5551 5546 5541 5535 5530 5525 5520 5515 5510 5505 5499 5493 5486 5478 5471 5464 5457 5450 5443
5603 5607 5615 5622 5615 5613 5614 5621 5619 5618 5620 5624 5625 5624 5617 5613 5615 5610 5600 5588 5577 5566 5556 5547 5541 5536 5533 5528 5523 5519 5514 5509 5504 5498 5492 5486 5478 5469 5462 5457 5450 5444 5438 5431
5591 5586 5594 5601 5600 5605 5604 5607 5604 5604 5605 5608 5609 5607 5592 5584 5581 5575 5567 5560 5552 5545 5539 5533 5527 5524 5521 5517 5512 5507 5502 5496 5489 5483 5476 5469 5461 5455 5449 5443 5438 5432 5426 5420
5580 5578 5591 5585 5590 5595 5589 5592 5589 5589 5589 5590 5586 5578 5567 5560 5554 5548 5543 5538 5533 5529 5524 5520 5516 5514 5510 5506 5500 5494 5488 5481 5474 5468 5461 5454 5448 5442 5436 5431 5424 5419 5414 5410
5573 5570 5572 5572 5576 5573 5574 5575 5575 5574 5573 5568 5561 5552 5545 5538 5533 5528 5524 5520 5518 5515 5511 5508 5505 5502 5498 5493 5487 5482 5476 5469 5462 5455 5450 5444 5437 5431 5424 5417 5414 5408 5404 5400
5564 5565 5564 5563 5558 5559 5560 5561 5561 5560 5556 5551 5542 5534 5527 5521 5516 5512 5510 5507 5506 5504 5501 5497 5495 5493 5489 5482 5477 5471 5465 5458 5451 5444 5438 5432 5427 5421 5414 5407 5402 5397 5393 5391
5552 5556 5552 5548 5548 5547 5548 5549 5548 5546 5541 5536 5527 5519 5513 5509 5505 5502 5500 5498 5497 5496 5493 5490 5487 5483 5478 5472 5466 5461 5455 5448 5442 5437 5431 5421 5415 5409 5402 5395 5391 5386 5383 5381
5541 5542 5539 5536 5534 5534 5534 5535 5534 5532 5529 5523 5518 5512 5508 5504 5500 5496 5494 5492 5492 5491 5488 5483 5479 5474 5469 5463 5458 5452 5446 5441 5435 5429 5421 5412 5404 5395 5390 5383 5377 5373 5373 5371
5531 5528 5527 5523 5523 5524 5525 5525 5523 5521 5517 5513 5510 5505 5502 5499 5496 5493 5491 5490 5488 5485 5482 5477 5472 5466 5460 5454 5450 5445 5440 5434 5429 5421 5412 5406 5398 5390 5379 5374 5370 5366 5364 5363
5521 5519 5519 5516 5517 5517 5516 5515 5514 5513 5510 5506 5503 5500 5498 5495 5493 5491 5489 5487 5484 5480 5476 5471 5465 5459 5452 5446 5441 5435 5429 5423 5419 5412 5405 5397 5390 5384 5378 5372 5368 5365 5363 5361
5514 5514 5513 5514 5512 5511 5510 5509 5508 5506 5504 5501 5499 5497 5494 5492 5490 5488 5485 5482 5479 5475 5470 5465 5459 5452 5445 5439 5433 5427 5421 5411 5408 5402 5395 5389 5383 5378 5373 5369 5366 5364 5362 5360
5512 5513 5512 5510 5508 5506 5506 5505 5504 5501 5499 5497 5495 5494 5492 5490 5487 5484 5481 5478 5475 5471 5466 5460 5453 5446 5439 5433 5426 5419 5414 5407 5400 5395 5390 5384 5379 5374 5369 5364 5361 5359 5358 5359
5510 5510 5508 5507 5506 5504 5504 5503 5502 5499 5497 5495 5493 5491 5489 5486 5483 5480 5478 5476 5472 5466 5460 5454 5448 5440 5433 5427 5421 5413 5403 5390 5392 5391 5387 5382 5376 5371 5365 5361 5358 5354 5353 5352
5510 5508 5507 5505 5504 5503 5502 5501 5499 5497 5495 5492 5490 5487 5485 5482 5479 5476 5474 5470 5466 5461 5456 5450 5443 5436 5430 5424 5419 5413 5406 5396 5387 5390 5384 5378 5374 5368 5363 5358 5355 5352 5350 5348
5512 5510 5508 5505 5503 5500 5498 5497 5496 5494 5492 5489 5487 5485 5482 5479 5476 5472 5470 5466 5462 5457 5452 5445 5439 5433 5426 5419 5413 5409 5404 5397 5391 5387 5380 5374 5371 5366 5361 5356 5353 5351 5349 5349
5509 5507 5504 5502 5500 5498 5497 5495 5493 5491 5489 5486 5484 5482 5479 5476 5473 5471 5469 5467 5463 5456 5448 5441 5431 5431 5422 5414 5409 5407 5402 5397 5391 5385 5380 5372 5371 5365 5360 5355 5352 5349 5348 5347
5505 5503 5500 5498 5496 5495 5493 5491 5489 5487 5485 5484 5481 5478 5476 5474 5472 5471 5469 5467 5462 5455 5447 5439 5435 5429 5422 5413 5407 5408 5402 5396 5390 5384 5379 5373 5369 5364 5360 5356 5352 5349 5348 5348
5502 5500 5497 5494 5492 5490 5488 5487 5485 5484 5482 5481 5479 5477 5475 5473 5473 5472 5471 5465 5456 5451 5445 5437 5437 5430 5422 5415 5410 5408 5402 5395 5389 5383 5377 5373 5368 5363 5359 5355 5353 5351 5350 5350
5500 5496 5493 5490 5488 5485 5484 5483 5482 5481 5480 5479 5478 5476 5474 5473 5473 5471 5468 5464 5456 5448 5449 5445 5437 5426 5421 5417 5415 5409 5402 5396 5390 5383 5377 5372 5367 5363 5359 5356 5353 5352 5351 5351
5496 5493 5490 5487 5485 5483 5481 5480 5480 5479 5478 5478 5477 5477 5477 5477 5476 5474 5469 5463 5459 5452 5451 5443 5431 5425 5421 5423 5417 5410 5403 5397 5391 5385 5378 5372 5367 5363 5360 5357 5354 5353 5352 5353
5493 5490 5488 5485 5482 5480 5479 5478 5478 5478 5478 5479 5478 5477 5477 5476 5475 5474 5468 5457 5456 5454 5449 5437 5431 5428 5425 5427 5420 5414 5407 5400 5394 5388 5381 5376 5370 5365 5361 5358 5356 5355 5354 5354
5491 5488 5485 5482 5480 5479 5478 5476 5476 5475 5477 5477 5477 5477 5479 5478 5476 5473 5468 5462 5455 5455 5449 5440 5435 5433 5435 5430 5424 5417 5408 5400 5395 5391 5384 5379 5374 5369 5364 5360 5358 5357 5356 5356
5488 5486 5483 5481 5481 5479 5479 5478 5478 5477 5478 5478 5478 5478 5478 5477 5474 5472 5469 5465 5462 5458 5456 5450 5446 5443 5441 5435 5428 5422 5416 5410 5403 5396 5389 5384 5378 5373 5368 5364 5361 5360 5358 5357
5486 5484 5481 5481 5480 5480 5480 5479 5479 5479 5479 5480 5479 5478 5478 5477 5476 5474 5472 5469 5467 5465 5462 5458 5455 5451 5446 5440 5434 5428 5422 5415 5409 5403 5397 5390 5384 5379 5375 5371 5367 5364 5362 5360